Time,TemperatureF,DewpointF,PressureIn,WindDirection,WindDirectionDegrees,WindSpeedMPH,WindSpeedGustMPH,Humidity,HourlyPrecipIn,Conditions,Clouds,dailyrainin,SolarRadiationWatts/m^2,SoftwareType,DateUTC
2013-03-04 00:00:00,30.5,29.5,30.29,N/A,-737280,0.0,-999.0,96,0.00,,,0.01,0,Wunderground v.1.15,2013-03-04 08:00:00,
2013-03-04 00:05:00,30.5,29.5,30.29,N/A,-737280,0.0,-999.0,96,0.00,,,0.01,0,Wunderground v.1.15,2013-03-04 08:05:00,
2013-03-04 00:09:00,30.4,29.0,30.29,NNE,30,0.0,0.0,95,0.00,,,0.00,0,weatherlink.com 1.10,2013-03-04 08:09:00,
2013-03-04 00:10:00,30.5,29.5,30.29,N/A,-737280,0.0,-999.0,96,0.00,,,0.01,0,Wunderground v.1.15,2013-03-04 08:10:00,
2013-03-04 00:15:00,30.5,29.5,30.29,N/A,-737280,0.0,-999.0,96,0.00,,,0.01,0,Wunderground v.1.15,2013-03-04 08:15:00,
2013-03-04 00:20:00,30.5,29.5,30.29,N/A,-737280,0.0,-999.0,96,0.00,,,0.01,0,Wunderground v.1.15,2013-03-04 08:20:00,
2013-03-04 00:24:00,30.2,29.0,30.29,NNE,30,0.0,0.0,96,0.00,,,0.00,0,weatherlink.com 1.10,2013-03-04 08:24:00,
2013-03-04 00:25:00,30.2,28.9,30.29,N/A,-737280,0.0,-999.0,95,0.00,,,0.01,0,Wunderground v.1.15,2013-03-04 08:25:00,
2013-03-04 00:30:00,30.2,28.9,30.29,N/A,-737280,0.0,-999.0,95,0.00,,,0.01,0,Wunderground v.1.15,2013-03-04 08:30:00,
2013-03-04 00:35:00,30.2,28.9,30.29,N/A,-737280,0.0,-999.0,95,0.00,,,0.01,0,Wunderground v.1.15,2013-03-04 08:35:00,
2013-03-04 00:39:00,29.8,29.0,30.29,NNE,30,1.0,1.0,96,0.00,,,0.00,0,weatherlink.com 1.10,2013-03-04 08:39:00,
2013-03-04 00:40:00,29.9,28.9,30.29,NNE,23,0.0,-999.0,96,0.00,,,0.01,0,Wunderground v.1.15,2013-03-04 08:40:00,
2013-03-04 00:45:00,29.9,28.9,30.29,NNE,23,0.0,-999.0,96,0.00,,,0.01,0,Wunderground v.1.15,2013-03-04 08:45:00,
2013-03-04 00:50:00,29.9,28.9,30.29,NNE,23,0.0,-999.0,96,0.00,,,0.01,0,Wunderground v.1.15,2013-03-04 08:50:00,
2013-03-04 00:54:00,29.6,29.0,30.29,NNE,30,0.0,0.0,96,0.00,,,0.00,0,weatherlink.com 1.10,2013-03-04 08:54:00,
2013-03-04 00:55:00,29.7,28.7,30.29,N/A,-737280,0.0,-999.0,96,0.00,,,0.01,0,Wunderground v.1.15,2013-03-04 08:55:00,
2013-03-04 01:00:00,29.7,28.7,30.29,N/A,-737280,0.0,-999.0,96,0.00,,,0.01,0,Wunderground v.1.15,2013-03-04 09:00:00,
2013-03-04 01:05:00,29.7,28.7,30.29,N/A,-737280,0.0,-999.0,96,0.00,,,0.01,0,Wunderground v.1.15,2013-03-04 09:05:00,
2013-03-04 01:09:00,29.6,29.0,30.29,NNE,30,0.0,0.0,96,0.00,,,0.00,0,weatherlink.com 1.10,2013-03-04 09:09:00,
2013-03-04 01:10:00,29.6,28.6,30.29,N/A,-737280,0.0,-999.0,96,0.00,,,0.01,0,Wunderground v.1.15,2013-03-04 09:10:00,
2013-03-04 01:15:00,29.6,28.6,30.29,N/A,-737280,0.0,-999.0,96,0.00,,,0.01,0,Wunderground v.1.15,2013-03-04 09:15:00,
2013-03-04 01:20:00,29.6,28.6,30.29,N/A,-737280,0.0,-999.0,96,0.00,,,0.01,0,Wunderground v.1.15,2013-03-04 09:20:00,
2013-03-04 01:24:00,29.5,29.0,30.29,NNE,30,0.0,0.0,96,0.00,,,0.00,0,weatherlink.com 1.10,2013-03-04 09:24:00,
2013-03-04 01:25:00,29.5,28.5,30.28,N/A,-737280,0.0,-999.0,96,0.00,,,0.01,0,Wunderground v.1.15,2013-03-04 09:25:00,
2013-03-04 01:30:00,29.5,28.5,30.28,N/A,-737280,0.0,-999.0,96,0.00,,,0.01,0,Wunderground v.1.15,2013-03-04 09:30:00,
2013-03-04 01:35:00,29.5,28.5,30.28,N/A,-737280,0.0,-999.0,96,0.00,,,0.01,0,Wunderground v.1.15,2013-03-04 09:35:00,
2013-03-04 01:39:00,29.3,28.0,30.29,NNE,30,0.0,0.0,96,0.00,,,0.00,0,weatherlink.com 1.10,2013-03-04 09:39:00,
2013-03-04 01:40:00,29.3,28.3,30.28,N/A,-737280,0.0,-999.0,96,0.00,,,0.01,0,Wunderground v.1.15,2013-03-04 09:40:00,
2013-03-04 01:45:00,29.3,28.3,30.28,N/A,-737280,0.0,-999.0,96,0.00,,,0.01,0,Wunderground v.1.15,2013-03-04 09:45:00,
2013-03-04 01:50:00,29.3,28.3,30.28,N/A,-737280,0.0,-999.0,96,0.00,,,0.01,0,Wunderground v.1.15,2013-03-04 09:50:00,
2013-03-04 01:54:00,29.4,28.0,30.29,NNE,30,0.0,0.0,96,0.00,,,0.00,0,weatherlink.com 1.10,2013-03-04 09:54:00,
2013-03-04 01:55:00,29.3,28.3,30.29,N/A,-737280,0.0,-999.0,96,0.00,,,0.01,0,Wunderground v.1.15,2013-03-04 09:55:00,
2013-03-04 02:00:00,29.3,28.3,30.29,N/A,-737280,0.0,-999.0,96,0.00,,,0.01,0,Wunderground v.1.15,2013-03-04 10:00:00,
2013-03-04 02:05:00,29.3,28.3,30.29,N/A,-737280,0.0,-999.0,96,0.00,,,0.01,0,Wunderground v.1.15,2013-03-04 10:05:00,
2013-03-04 02:09:00,29.3,28.0,30.29,NNE,30,0.0,0.0,96,0.00,,,0.00,0,weatherlink.com 1.10,2013-03-04 10:09:00,
2013-03-04 02:10:00,29.3,28.3,30.28,N/A,-737280,0.0,-999.0,96,0.00,,,0.01,0,Wunderground v.1.15,2013-03-04 10:10:00,
2013-03-04 02:15:00,29.3,28.3,30.28,N/A,-737280,0.0,-999.0,96,0.00,,,0.01,0,Wunderground v.1.15,2013-03-04 10:15:00,
2013-03-04 02:20:00,29.3,28.3,30.28,N/A,-737280,0.0,-999.0,96,0.00,,,0.01,0,Wunderground v.1.15,2013-03-04 10:20:00,
2013-03-04 02:24:00,29.2,28.0,30.28,NNE,30,0.0,0.0,96,0.00,,,0.00,0,weatherlink.com 1.10,2013-03-04 10:24:00,
2013-03-04 02:25:00,29.2,28.2,30.28,N/A,-737280,0.0,-999.0,96,0.00,,,0.01,0,Wunderground v.1.15,2013-03-04 10:25:00,
2013-03-04 02:30:00,29.2,28.2,30.28,N/A,-737280,0.0,-999.0,96,0.00,,,0.01,0,Wunderground v.1.15,2013-03-04 10:30:00,
2013-03-04 02:35:00,29.2,28.2,30.28,N/A,-737280,0.0,-999.0,96,0.00,,,0.01,0,Wunderground v.1.15,2013-03-04 10:35:00,
2013-03-04 02:39:00,29.0,28.0,30.28,NNE,30,0.0,0.0,96,0.00,,,0.00,0,weatherlink.com 1.10,2013-03-04 10:39:00,
2013-03-04 02:40:00,29.0,28.0,30.28,N/A,-737280,0.0,-999.0,96,0.00,,,0.01,0,Wunderground v.1.15,2013-03-04 10:40:00,
2013-03-04 02:45:00,29.0,28.0,30.28,N/A,-737280,0.0,-999.0,96,0.00,,,0.01,0,Wunderground v.1.15,2013-03-04 10:45:00,
2013-03-04 02:50:00,29.0,28.0,30.28,N/A,-737280,0.0,-999.0,96,0.00,,,0.01,0,Wunderground v.1.15,2013-03-04 10:50:00,
2013-03-04 02:54:00,28.8,28.0,30.28,NNE,30,0.0,0.0,96,0.00,,,0.00,0,weatherlink.com 1.10,2013-03-04 10:54:00,
2013-03-04 02:55:00,28.8,27.8,30.28,N/A,-737280,0.0,-999.0,96,0.00,,,0.01,0,Wunderground v.1.15,2013-03-04 10:55:00,
2013-03-04 03:00:00,28.8,27.8,30.28,N/A,-737280,0.0,-999.0,96,0.00,,,0.01,0,Wunderground v.1.15,2013-03-04 11:00:00,
2013-03-04 03:05:00,28.8,27.8,30.28,N/A,-737280,0.0,-999.0,96,0.00,,,0.01,0,Wunderground v.1.15,2013-03-04 11:05:00,
2013-03-04 03:09:00,28.6,28.0,30.28,NNE,30,0.0,0.0,96,0.00,,,0.00,0,weatherlink.com 1.10,2013-03-04 11:09:00,
2013-03-04 03:10:00,28.6,27.6,30.27,N/A,-737280,0.0,-999.0,96,0.00,,,0.01,0,Wunderground v.1.15,2013-03-04 11:10:00,
2013-03-04 03:15:00,28.6,27.6,30.27,N/A,-737280,0.0,-999.0,96,0.00,,,0.01,0,Wunderground v.1.15,2013-03-04 11:15:00,
2013-03-04 03:20:00,28.6,27.6,30.27,N/A,-737280,0.0,-999.0,96,0.00,,,0.01,0,Wunderground v.1.15,2013-03-04 11:20:00,
2013-03-04 03:25:00,28.5,28.0,30.27,NNE,30,0.0,0.0,96,0.00,,,0.00,0,weatherlink.com 1.10,2013-03-04 11:25:00,
2013-03-04 03:30:00,28.5,27.5,30.27,N/A,-737280,0.0,-999.0,96,0.00,,,0.01,0,Wunderground v.1.15,2013-03-04 11:30:00,
2013-03-04 03:35:00,28.5,27.5,30.27,N/A,-737280,0.0,-999.0,96,0.00,,,0.01,0,Wunderground v.1.15,2013-03-04 11:35:00,
2013-03-04 03:39:00,28.5,28.0,30.27,NNE,30,0.0,0.0,96,0.00,,,0.00,0,weatherlink.com 1.10,2013-03-04 11:39:00,
2013-03-04 03:40:00,28.5,27.5,30.27,N/A,-737280,0.0,-999.0,96,0.00,,,0.01,0,Wunderground v.1.15,2013-03-04 11:40:00,
2013-03-04 03:45:00,28.5,27.5,30.27,N/A,-737280,0.0,-999.0,96,0.00,,,0.01,0,Wunderground v.1.15,2013-03-04 11:45:00,
2013-03-04 03:50:00,28.5,27.5,30.27,N/A,-737280,0.0,-999.0,96,0.00,,,0.01,0,Wunderground v.1.15,2013-03-04 11:50:00,
2013-03-04 03:55:00,28.4,27.0,30.27,NNE,30,0.0,0.0,96,0.00,,,0.00,0,weatherlink.com 1.10,2013-03-04 11:55:00,
2013-03-04 04:00:00,28.4,27.4,30.27,N/A,-737280,0.0,-999.0,96,0.00,,,0.01,0,Wunderground v.1.15,2013-03-04 12:00:00,
2013-03-04 04:05:00,28.4,27.4,30.27,N/A,-737280,0.0,-999.0,96,0.00,,,0.01,0,Wunderground v.1.15,2013-03-04 12:05:00,
2013-03-04 04:10:00,28.3,27.0,30.27,NNE,30,0.0,0.0,96,0.00,,,0.00,0,weatherlink.com 1.10,2013-03-04 12:10:00,
2013-03-04 04:15:00,28.3,27.3,30.26,NNE,23,0.0,-999.0,96,0.00,,,0.01,0,Wunderground v.1.15,2013-03-04 12:15:00,
2013-03-04 04:20:00,28.3,27.3,30.26,NNE,23,0.0,-999.0,96,0.00,,,0.01,0,Wunderground v.1.15,2013-03-04 12:20:00,
2013-03-04 04:25:00,28.5,28.0,30.26,NNE,30,0.0,0.0,96,0.00,,,0.00,0,weatherlink.com 1.10,2013-03-04 12:25:00,
2013-03-04 04:30:00,28.5,27.5,30.26,N/A,-737280,0.0,-999.0,96,0.00,,,0.01,0,Wunderground v.1.15,2013-03-04 12:30:00,
2013-03-04 04:35:00,28.5,27.5,30.26,N/A,-737280,0.0,-999.0,96,0.00,,,0.01,0,Wunderground v.1.15,2013-03-04 12:35:00,
2013-03-04 04:40:00,28.4,27.0,30.26,NNE,30,0.0,0.0,96,0.00,,,0.00,0,weatherlink.com 1.10,2013-03-04 12:40:00,
2013-03-04 04:45:00,28.4,27.4,30.26,N/A,-737280,0.0,-999.0,96,0.00,,,0.01,0,Wunderground v.1.15,2013-03-04 12:45:00,
2013-03-04 04:50:00,28.4,27.4,30.26,N/A,-737280,0.0,-999.0,96,0.00,,,0.01,0,Wunderground v.1.15,2013-03-04 12:50:00,
2013-03-04 04:55:00,28.3,27.0,30.26,NNE,30,0.0,0.0,96,0.00,,,0.00,0,weatherlink.com 1.10,2013-03-04 12:55:00,
2013-03-04 05:00:00,28.3,27.3,30.26,N/A,-737280,0.0,-999.0,96,0.00,,,0.01,0,Wunderground v.1.15,2013-03-04 13:00:00,
2013-03-04 05:05:00,28.3,27.3,30.26,N/A,-737280,0.0,-999.0,96,0.00,,,0.01,0,Wunderground v.1.15,2013-03-04 13:05:00,
2013-03-04 05:10:00,28.2,27.0,30.26,NNE,30,0.0,0.0,96,0.00,,,0.00,0,weatherlink.com 1.10,2013-03-04 13:10:00,
2013-03-04 05:15:00,28.2,27.2,30.26,N/A,-737280,0.0,-999.0,96,0.00,,,0.01,0,Wunderground v.1.15,2013-03-04 13:15:00,
2013-03-04 05:20:00,28.2,27.2,30.26,N/A,-737280,0.0,-999.0,96,0.00,,,0.01,0,Wunderground v.1.15,2013-03-04 13:20:00,
2013-03-04 05:25:00,28.1,27.0,30.26,NNE,30,0.0,0.0,96,0.00,,,0.00,0,weatherlink.com 1.10,2013-03-04 13:25:00,
2013-03-04 05:30:00,28.1,27.1,30.26,N/A,-737280,0.0,-999.0,96,0.00,,,0.01,0,Wunderground v.1.15,2013-03-04 13:30:00,
2013-03-04 05:35:00,28.1,27.1,30.26,N/A,-737280,0.0,-999.0,96,0.00,,,0.01,0,Wunderground v.1.15,2013-03-04 13:35:00,
2013-03-04 05:40:00,27.9,27.0,30.26,NNE,30,0.0,0.0,96,0.00,,,0.00,0,weatherlink.com 1.10,2013-03-04 13:40:00,
2013-03-04 05:45:00,27.9,26.9,30.25,N/A,-737280,0.0,-999.0,96,0.00,,,0.01,0,Wunderground v.1.15,2013-03-04 13:45:00,
2013-03-04 05:50:00,27.9,26.9,30.25,N/A,-737280,0.0,-999.0,96,0.00,,,0.01,0,Wunderground v.1.15,2013-03-04 13:50:00,
2013-03-04 05:55:00,27.6,27.0,30.25,NNE,30,0.0,0.0,96,0.00,,,0.00,0,weatherlink.com 1.10,2013-03-04 13:55:00,
2013-03-04 06:00:00,27.6,26.6,30.25,N/A,-737280,0.0,-999.0,96,0.00,,,0.01,0,Wunderground v.1.15,2013-03-04 14:00:00,
2013-03-04 06:05:00,27.6,26.6,30.25,N/A,-737280,0.0,-999.0,96,0.00,,,0.01,0,Wunderground v.1.15,2013-03-04 14:05:00,
2013-03-04 06:10:00,27.5,27.0,30.25,NNE,30,0.0,0.0,96,0.00,,,0.00,0,weatherlink.com 1.10,2013-03-04 14:10:00,
2013-03-04 06:15:00,27.5,26.5,30.25,NE,45,0.0,-999.0,96,0.00,,,0.01,0,Wunderground v.1.15,2013-03-04 14:15:00,
2013-03-04 06:20:00,27.5,26.5,30.25,NE,45,0.0,-999.0,96,0.00,,,0.01,0,Wunderground v.1.15,2013-03-04 14:20:00,
2013-03-04 06:25:00,27.6,27.0,30.25,NE,53,0.0,0.0,96,0.00,,,0.00,0,weatherlink.com 1.10,2013-03-04 14:25:00,
2013-03-04 06:30:00,27.5,26.5,30.24,N/A,-737280,0.0,-999.0,96,0.00,,,0.01,0,Wunderground v.1.15,2013-03-04 14:30:00,
2013-03-04 06:35:00,27.5,26.5,30.24,N/A,-737280,0.0,-999.0,96,0.00,,,0.01,0,Wunderground v.1.15,2013-03-04 14:35:00,
2013-03-04 06:40:00,27.6,27.0,30.24,NE,53,0.0,0.0,97,0.00,,,0.00,0,weatherlink.com 1.10,2013-03-04 14:40:00,
2013-03-04 06:45:00,27.5,26.8,30.24,N/A,-737280,0.0,-999.0,97,0.00,,,0.01,2,Wunderground v.1.15,2013-03-04 14:45:00,
2013-03-04 06:50:00,27.5,26.8,30.24,N/A,-737280,0.0,-999.0,97,0.00,,,0.01,2,Wunderground v.1.15,2013-03-04 14:50:00,
2013-03-04 06:55:00,27.6,27.0,30.24,NE,53,0.0,0.0,96,0.00,,,0.00,11,weatherlink.com 1.10,2013-03-04 14:55:00,
2013-03-04 07:00:00,27.6,26.6,30.23,N/A,-737280,0.0,-999.0,96,0.00,,,0.01,9,Wunderground v.1.15,2013-03-04 15:00:00,
2013-03-04 07:05:00,27.6,26.6,30.23,N/A,-737280,0.0,-999.0,96,0.00,,,0.01,9,Wunderground v.1.15,2013-03-04 15:05:00,
2013-03-04 07:10:00,28.1,27.0,30.23,NE,53,0.0,0.0,97,0.00,,,0.00,23,weatherlink.com 1.10,2013-03-04 15:10:00,
2013-03-04 07:15:00,28.0,27.3,30.23,N/A,-737280,0.0,-999.0,97,0.00,,,0.01,21,Wunderground v.1.15,2013-03-04 15:15:00,
2013-03-04 07:20:00,28.0,27.3,30.23,N/A,-737280,0.0,-999.0,97,0.00,,,0.01,21,Wunderground v.1.15,2013-03-04 15:20:00,
2013-03-04 07:25:00,28.2,28.0,30.23,NE,53,0.0,0.0,97,0.00,,,0.00,28,weatherlink.com 1.10,2013-03-04 15:25:00,
2013-03-04 07:30:00,28.2,27.5,30.23,N/A,-737280,0.0,-999.0,97,0.00,,,0.01,27,Wunderground v.1.15,2013-03-04 15:30:00,
2013-03-04 07:35:00,28.2,27.5,30.23,N/A,-737280,0.0,-999.0,97,0.00,,,0.01,27,Wunderground v.1.15,2013-03-04 15:35:00,
2013-03-04 07:40:00,28.2,28.0,30.23,NE,53,0.0,0.0,97,0.00,,,0.00,35,weatherlink.com 1.10,2013-03-04 15:40:00,
2013-03-04 07:45:00,28.2,27.5,30.23,N/A,-737280,0.0,-999.0,97,0.00,,,0.01,36,Wunderground v.1.15,2013-03-04 15:45:00,
2013-03-04 07:50:00,28.2,27.5,30.23,N/A,-737280,0.0,-999.0,97,0.00,,,0.01,36,Wunderground v.1.15,2013-03-04 15:50:00,
2013-03-04 07:55:00,29.0,28.0,30.23,NE,53,0.0,0.0,97,0.00,,,0.00,83,weatherlink.com 1.10,2013-03-04 15:55:00,
2013-03-04 08:00:00,28.8,28.1,30.23,N/A,-737280,0.0,-999.0,97,0.00,,,0.01,86,Wunderground v.1.15,2013-03-04 16:00:00,
2013-03-04 08:05:00,28.8,28.1,30.23,N/A,-737280,0.0,-999.0,97,0.00,,,0.01,86,Wunderground v.1.15,2013-03-04 16:05:00,
2013-03-04 08:10:00,30.6,30.0,30.23,NE,53,0.0,0.0,97,0.01,,,0.01,142,weatherlink.com 1.10,2013-03-04 16:10:00,
2013-03-04 08:15:00,30.4,29.7,30.23,N/A,-737280,0.0,-999.0,97,0.01,,,0.01,140,Wunderground v.1.15,2013-03-04 16:15:00,
2013-03-04 08:20:00,30.4,29.7,30.23,N/A,-737280,0.0,-999.0,97,0.01,,,0.01,140,Wunderground v.1.15,2013-03-04 16:20:00,
2013-03-04 08:25:00,31.7,31.0,30.23,NE,53,0.0,0.0,97,0.01,,,0.01,206,weatherlink.com 1.10,2013-03-04 16:25:00,
2013-03-04 08:30:00,31.5,30.7,30.23,N/A,-737280,0.0,-999.0,97,0.01,,,0.01,193,Wunderground v.1.15,2013-03-04 16:30:00,
2013-03-04 08:35:00,31.5,30.7,30.23,N/A,-737280,0.0,-999.0,97,0.01,,,0.01,193,Wunderground v.1.15,2013-03-04 16:35:00,
2013-03-04 08:40:00,32.7,32.0,30.23,NE,44,0.0,2.0,97,0.01,,,0.01,223,weatherlink.com 1.10,2013-03-04 16:40:00,
2013-03-04 08:45:00,32.6,31.8,30.23,NE,45,0.0,-999.0,97,0.01,,,0.01,232,Wunderground v.1.15,2013-03-04 16:45:00,
2013-03-04 08:50:00,32.6,31.8,30.23,NE,45,0.0,-999.0,97,0.01,,,0.01,232,Wunderground v.1.15,2013-03-04 16:50:00,
2013-03-04 08:55:00,34.4,34.0,30.23,ESE,115,0.0,2.0,98,0.01,,,0.01,264,weatherlink.com 1.10,2013-03-04 16:55:00,
2013-03-04 09:00:00,34.1,33.3,30.23,ESE,113,0.0,-999.0,97,0.01,,,0.01,247,Wunderground v.1.15,2013-03-04 17:00:00,
2013-03-04 09:05:00,34.1,33.3,30.23,ESE,113,0.0,-999.0,97,0.01,,,0.01,247,Wunderground v.1.15,2013-03-04 17:05:00,
2013-03-04 09:10:00,35.2,34.0,30.23,ESE,122,0.0,1.0,95,0.00,,,0.01,199,weatherlink.com 1.10,2013-03-04 17:10:00,
2013-03-04 09:15:00,35.3,34.3,30.23,ESE,113,0.0,-999.0,96,0.00,,,0.01,213,Wunderground v.1.15,2013-03-04 17:15:00,
2013-03-04 09:20:00,35.3,34.3,30.23,ESE,113,0.0,-999.0,96,0.00,,,0.01,213,Wunderground v.1.15,2013-03-04 17:20:00,
2013-03-04 09:25:00,36.4,35.0,30.23,NNE,30,0.0,3.0,95,0.00,,,0.01,336,weatherlink.com 1.10,2013-03-04 17:25:00,
2013-03-04 09:30:00,36.2,34.6,30.22,North,0,0.0,-999.0,94,0.00,,,0.01,315,Wunderground v.1.15,2013-03-04 17:30:00,
2013-03-04 09:35:00,36.2,34.6,30.22,North,0,0.0,-999.0,94,0.00,,,0.01,315,Wunderground v.1.15,2013-03-04 17:35:00,
2013-03-04 09:40:00,37.3,35.0,30.22,NNE,33,0.0,3.0,92,0.00,,,0.01,246,weatherlink.com 1.10,2013-03-04 17:40:00,
2013-03-04 09:45:00,37.3,35.2,30.21,East,90,1.0,-999.0,92,0.00,,,0.01,274,Wunderground v.1.15,2013-03-04 17:45:00,
2013-03-04 09:50:00,37.3,35.2,30.21,East,90,1.0,-999.0,92,0.00,,,0.01,274,Wunderground v.1.15,2013-03-04 17:50:00,
2013-03-04 09:55:00,38.1,36.0,30.21,SE,128,0.0,3.0,91,0.00,,,0.01,330,weatherlink.com 1.10,2013-03-04 17:55:00,
2013-03-04 10:00:00,38.0,35.3,30.21,ESE,113,1.0,-999.0,90,0.00,,,0.01,319,Wunderground v.1.15,2013-03-04 18:00:00,
2013-03-04 10:05:00,38.0,35.3,30.21,ESE,113,1.0,-999.0,90,0.00,,,0.01,319,Wunderground v.1.15,2013-03-04 18:05:00,
2013-03-04 10:10:00,38.6,35.0,30.21,South,182,0.0,2.0,87,0.00,,,0.01,366,weatherlink.com 1.10,2013-03-04 18:10:00,
2013-03-04 10:15:00,38.5,34.4,30.21,WSW,248,0.0,-999.0,85,0.00,,,0.01,332,Wunderground v.1.15,2013-03-04 18:15:00,
2013-03-04 10:20:00,38.5,34.4,30.21,WSW,248,0.0,-999.0,85,0.00,,,0.01,332,Wunderground v.1.15,2013-03-04 18:20:00,
2013-03-04 10:25:00,39.7,36.0,30.21,NW,321,0.0,3.0,85,0.00,,,0.01,452,weatherlink.com 1.10,2013-03-04 18:25:00,
2013-03-04 10:30:00,39.5,34.8,30.21,NW,315,1.0,-999.0,83,0.00,,,0.01,432,Wunderground v.1.15,2013-03-04 18:30:00,
2013-03-04 10:35:00,39.5,34.8,30.21,NW,315,1.0,-999.0,83,0.00,,,0.01,432,Wunderground v.1.15,2013-03-04 18:35:00,
2013-03-04 10:40:00,41.4,35.0,30.21,North,360,1.0,3.0,79,0.00,,,0.01,394,weatherlink.com 1.10,2013-03-04 18:40:00,
2013-03-04 10:45:00,40.9,34.9,30.20,WNW,293,1.0,-999.0,79,0.00,,,0.01,443,Wunderground v.1.15,2013-03-04 18:45:00,
2013-03-04 10:50:00,40.9,34.9,30.20,WNW,293,1.0,-999.0,79,0.00,,,0.01,443,Wunderground v.1.15,2013-03-04 18:50:00,
2013-03-04 10:55:00,41.8,36.1,30.19,NNW,338,1.0,-999.0,80,0.00,,,0.01,421,Wunderground v.1.15,2013-03-04 18:55:00,
2013-03-04 10:56:00,41.9,36.0,30.20,NNW,338,0.0,5.0,79,0.00,,,0.01,374,weatherlink.com 1.10,2013-03-04 18:56:00,
2013-03-04 11:00:00,41.8,36.1,30.19,NNW,338,1.0,-999.0,80,0.00,,,0.01,421,Wunderground v.1.15,2013-03-04 19:00:00,
2013-03-04 11:05:00,41.8,36.1,30.19,NNW,338,1.0,-999.0,80,0.00,,,0.01,421,Wunderground v.1.15,2013-03-04 19:05:00,
2013-03-04 11:10:00,42.8,35.8,30.19,West,270,1.0,-999.0,76,0.00,,,0.01,521,Wunderground v.1.15,2013-03-04 19:10:00,
2013-03-04 11:11:00,42.9,36.0,30.20,WNW,303,0.0,4.0,78,0.00,,,0.01,547,weatherlink.com 1.10,2013-03-04 19:11:00,
2013-03-04 11:15:00,42.8,35.8,30.19,West,270,1.0,-999.0,76,0.00,,,0.01,521,Wunderground v.1.15,2013-03-04 19:15:00,
2013-03-04 11:20:00,42.8,35.8,30.19,West,270,1.0,-999.0,76,0.00,,,0.01,521,Wunderground v.1.15,2013-03-04 19:20:00,
2013-03-04 11:25:00,44.3,35.8,30.18,NW,315,1.0,-999.0,72,0.00,,,0.01,540,Wunderground v.1.15,2013-03-04 19:25:00,
2013-03-04 11:26:00,44.6,36.0,30.19,WNW,300,1.0,4.0,73,0.00,,,0.01,545,weatherlink.com 1.10,2013-03-04 19:26:00,
2013-03-04 11:30:00,44.3,35.8,30.18,NW,315,1.0,-999.0,72,0.00,,,0.01,540,Wunderground v.1.15,2013-03-04 19:30:00,
2013-03-04 11:35:00,44.3,35.8,30.18,NW,315,1.0,-999.0,72,0.00,,,0.01,540,Wunderground v.1.15,2013-03-04 19:35:00,
2013-03-04 11:40:00,45.6,36.0,30.17,NNW,338,1.0,-999.0,69,0.00,,,0.01,553,Wunderground v.1.15,2013-03-04 19:40:00,
2013-03-04 11:41:00,45.9,37.0,30.18,NNW,333,0.0,5.0,70,0.00,,,0.01,515,weatherlink.com 1.10,2013-03-04 19:41:00,
2013-03-04 11:45:00,45.6,36.0,30.17,NNW,338,1.0,-999.0,69,0.00,,,0.01,553,Wunderground v.1.15,2013-03-04 19:45:00,
2013-03-04 11:50:00,45.6,36.0,30.17,NNW,338,1.0,-999.0,69,0.00,,,0.01,553,Wunderground v.1.15,2013-03-04 19:50:00,
2013-03-04 11:55:00,46.3,35.9,30.16,North,0,2.0,-999.0,67,0.00,,,0.01,527,Wunderground v.1.15,2013-03-04 19:55:00,
2013-03-04 11:56:00,46.3,36.0,30.17,East,95,1.0,4.0,67,0.00,,,0.01,571,weatherlink.com 1.10,2013-03-04 19:56:00,
2013-03-04 12:00:00,46.3,35.9,30.16,North,0,2.0,-999.0,67,0.00,,,0.01,527,Wunderground v.1.15,2013-03-04 20:00:00,
2013-03-04 12:05:00,46.3,35.9,30.16,North,0,2.0,-999.0,67,0.00,,,0.01,527,Wunderground v.1.15,2013-03-04 20:05:00,
2013-03-04 12:10:00,46.8,35.6,30.15,NNW,338,1.0,-999.0,65,0.00,,,0.01,559,Wunderground v.1.15,2013-03-04 20:10:00,
2013-03-04 12:11:00,47.0,35.0,30.16,NNW,338,0.0,4.0,64,0.00,,,0.01,580,weatherlink.com 1.10,2013-03-04 20:11:00,
2013-03-04 12:15:00,46.8,35.6,30.15,NNW,338,1.0,-999.0,65,0.00,,,0.01,559,Wunderground v.1.15,2013-03-04 20:15:00,
2013-03-04 12:20:00,46.8,35.6,30.15,NNW,338,1.0,-999.0,65,0.00,,,0.01,559,Wunderground v.1.15,2013-03-04 20:20:00,
2013-03-04 12:25:00,48.0,35.2,30.14,North,0,2.0,-999.0,61,0.00,,,0.01,578,Wunderground v.1.15,2013-03-04 20:25:00,
2013-03-04 12:26:00,48.3,36.0,30.15,WNW,302,3.0,4.0,62,0.00,,,0.01,580,weatherlink.com 1.10,2013-03-04 20:26:00,
2013-03-04 12:30:00,48.0,35.2,30.14,North,0,2.0,-999.0,61,0.00,,,0.01,578,Wunderground v.1.15,2013-03-04 20:30:00,
2013-03-04 12:35:00,48.0,35.2,30.14,North,0,2.0,-999.0,61,0.00,,,0.01,578,Wunderground v.1.15,2013-03-04 20:35:00,
2013-03-04 12:40:00,48.7,35.8,30.13,NNW,338,1.0,-999.0,61,0.00,,,0.01,575,Wunderground v.1.15,2013-03-04 20:40:00,
2013-03-04 12:41:00,48.9,35.0,30.14,NW,325,3.0,5.0,60,0.00,,,0.01,571,weatherlink.com 1.10,2013-03-04 20:41:00,
2013-03-04 12:45:00,48.7,35.8,30.13,NNW,338,1.0,-999.0,61,0.00,,,0.01,575,Wunderground v.1.15,2013-03-04 20:45:00,
2013-03-04 12:50:00,48.7,35.8,30.13,NNW,338,1.0,-999.0,61,0.00,,,0.01,575,Wunderground v.1.15,2013-03-04 20:50:00,
2013-03-04 12:55:00,49.8,35.6,30.13,NNW,338,2.0,-999.0,58,0.00,,,0.01,567,Wunderground v.1.15,2013-03-04 20:55:00,
2013-03-04 12:56:00,50.0,36.0,30.13,SE,146,1.0,5.0,60,0.00,,,0.01,564,weatherlink.com 1.10,2013-03-04 20:56:00,
2013-03-04 13:00:00,49.8,35.6,30.13,NNW,338,2.0,-999.0,58,0.00,,,0.01,567,Wunderground v.1.15,2013-03-04 21:00:00,
2013-03-04 13:05:00,49.8,35.6,30.13,NNW,338,2.0,-999.0,58,0.00,,,0.01,567,Wunderground v.1.15,2013-03-04 21:05:00,
2013-03-04 13:10:00,50.8,34.7,30.11,NNW,338,1.0,-999.0,54,0.00,,,0.01,559,Wunderground v.1.15,2013-03-04 21:10:00,
2013-03-04 13:11:00,51.2,37.0,30.13,North,351,2.0,3.0,58,0.00,,,0.01,564,weatherlink.com 1.10,2013-03-04 21:11:00,
2013-03-04 13:15:00,50.8,34.7,30.11,NNW,338,1.0,-999.0,54,0.00,,,0.01,559,Wunderground v.1.15,2013-03-04 21:15:00,
2013-03-04 13:20:00,50.8,34.7,30.11,NNW,338,1.0,-999.0,54,0.00,,,0.01,559,Wunderground v.1.15,2013-03-04 21:20:00,
2013-03-04 13:25:00,51.6,39.4,30.11,West,270,1.0,-999.0,63,0.00,,,0.01,549,Wunderground v.1.15,2013-03-04 21:25:00,
2013-03-04 13:26:00,51.7,37.0,30.11,WNW,296,1.0,3.0,57,0.00,,,0.01,557,weatherlink.com 1.10,2013-03-04 21:26:00,
2013-03-04 13:30:00,51.6,39.4,30.11,West,270,1.0,-999.0,63,0.00,,,0.01,549,Wunderground v.1.15,2013-03-04 21:30:00,
2013-03-04 13:35:00,51.6,39.4,30.11,West,270,1.0,-999.0,63,0.00,,,0.01,549,Wunderground v.1.15,2013-03-04 21:35:00,
2013-03-04 13:40:00,52.0,32.9,30.09,SE,135,2.0,-999.0,48,0.00,,,0.01,545,Wunderground v.1.15,2013-03-04 21:40:00,
2013-03-04 13:41:00,52.1,35.0,30.11,SE,144,2.0,6.0,53,0.00,,,0.01,564,weatherlink.com 1.10,2013-03-04 21:41:00,
2013-03-04 13:45:00,52.0,32.9,30.09,SE,135,2.0,-999.0,48,0.00,,,0.01,545,Wunderground v.1.15,2013-03-04 21:45:00,
2013-03-04 13:50:00,52.0,32.9,30.09,SE,135,2.0,-999.0,48,0.00,,,0.01,545,Wunderground v.1.15,2013-03-04 21:50:00,
2013-03-04 13:55:00,53.5,31.5,30.08,ESE,113,2.0,-999.0,43,0.00,,,0.01,502,Wunderground v.1.15,2013-03-04 21:55:00,
2013-03-04 13:56:00,53.7,33.0,30.09,SE,126,3.0,4.0,45,0.00,,,0.01,527,weatherlink.com 1.10,2013-03-04 21:56:00,
2013-03-04 14:00:00,53.5,31.5,30.08,ESE,113,2.0,-999.0,43,0.00,,,0.01,502,Wunderground v.1.15,2013-03-04 22:00:00,
2013-03-04 14:05:00,53.5,31.5,30.08,ESE,113,2.0,-999.0,43,0.00,,,0.01,502,Wunderground v.1.15,2013-03-04 22:05:00,
2013-03-04 14:10:00,54.2,32.2,30.08,SE,135,2.0,-999.0,43,0.00,,,0.01,446,Wunderground v.1.15,2013-03-04 22:10:00,
2013-03-04 14:11:00,54.4,31.0,30.09,SE,124,1.0,5.0,41,0.00,,,0.01,439,weatherlink.com 1.10,2013-03-04 22:11:00,
2013-03-04 14:15:00,54.2,32.2,30.08,SE,135,2.0,-999.0,43,0.00,,,0.01,446,Wunderground v.1.15,2013-03-04 22:15:00,
2013-03-04 14:20:00,54.2,32.2,30.08,SE,135,2.0,-999.0,43,0.00,,,0.01,446,Wunderground v.1.15,2013-03-04 22:20:00,
2013-03-04 14:25:00,54.1,30.9,30.08,ESE,113,2.0,-999.0,41,0.00,,,0.01,373,Wunderground v.1.15,2013-03-04 22:25:00,
2013-03-04 14:26:00,54.0,31.0,30.09,SE,130,2.0,9.0,42,0.00,,,0.01,339,weatherlink.com 1.10,2013-03-04 22:26:00,
2013-03-04 14:30:00,54.1,30.9,30.08,ESE,113,2.0,-999.0,41,0.00,,,0.01,373,Wunderground v.1.15,2013-03-04 22:30:00,
2013-03-04 14:35:00,54.1,30.9,30.08,ESE,113,2.0,-999.0,41,0.00,,,0.01,373,Wunderground v.1.15,2013-03-04 22:35:00,
2013-03-04 14:40:00,53.7,30.5,30.07,ESE,113,2.0,-999.0,41,0.00,,,0.01,319,Wunderground v.1.15,2013-03-04 22:40:00,
2013-03-04 14:41:00,53.7,31.0,30.07,SE,132,0.0,10.0,43,0.00,,,0.01,315,weatherlink.com 1.10,2013-03-04 22:41:00,
2013-03-04 14:45:00,53.7,30.5,30.07,ESE,113,2.0,-999.0,41,0.00,,,0.01,319,Wunderground v.1.15,2013-03-04 22:45:00,
2013-03-04 14:50:00,53.7,30.5,30.07,ESE,113,2.0,-999.0,41,0.00,,,0.01,319,Wunderground v.1.15,2013-03-04 22:50:00,
2013-03-04 14:55:00,53.9,30.7,30.06,ESE,113,2.0,-999.0,41,0.00,,,0.01,379,Wunderground v.1.15,2013-03-04 22:55:00,
2013-03-04 14:56:00,54.0,31.0,30.07,SSE,152,1.0,5.0,41,0.00,,,0.01,397,weatherlink.com 1.10,2013-03-04 22:56:00,
2013-03-04 15:00:00,53.9,30.7,30.06,ESE,113,2.0,-999.0,41,0.00,,,0.01,379,Wunderground v.1.15,2013-03-04 23:00:00,
2013-03-04 15:05:00,53.9,30.7,30.06,ESE,113,2.0,-999.0,41,0.00,,,0.01,379,Wunderground v.1.15,2013-03-04 23:05:00,
2013-03-04 15:10:00,54.1,30.9,30.06,ESE,113,2.0,-999.0,41,0.00,,,0.01,312,Wunderground v.1.15,2013-03-04 23:10:00,
2013-03-04 15:11:00,54.0,31.0,30.06,SSE,157,2.0,10.0,41,0.00,,,0.01,334,weatherlink.com 1.10,2013-03-04 23:11:00,
2013-03-04 15:15:00,54.1,30.9,30.06,ESE,113,2.0,-999.0,41,0.00,,,0.01,312,Wunderground v.1.15,2013-03-04 23:15:00,
2013-03-04 15:20:00,54.1,30.9,30.06,ESE,113,2.0,-999.0,41,0.00,,,0.01,312,Wunderground v.1.15,2013-03-04 23:20:00,
2013-03-04 15:25:00,54.0,31.4,30.05,ESE,113,2.0,-999.0,42,0.00,,,0.01,223,Wunderground v.1.15,2013-03-04 23:25:00,
2013-03-04 15:26:00,54.0,31.0,30.05,East,101,1.0,10.0,41,0.00,,,0.01,162,weatherlink.com 1.10,2013-03-04 23:26:00,
2013-03-04 15:30:00,54.0,31.4,30.05,ESE,113,2.0,-999.0,42,0.00,,,0.01,223,Wunderground v.1.15,2013-03-04 23:30:00,
2013-03-04 15:35:00,54.0,31.4,30.05,ESE,113,2.0,-999.0,42,0.00,,,0.01,223,Wunderground v.1.15,2013-03-04 23:35:00,
2013-03-04 15:40:00,53.6,30.4,30.04,ESE,113,2.0,-999.0,41,0.00,,,0.01,311,Wunderground v.1.15,2013-03-04 23:40:00,
2013-03-04 15:45:00,53.6,30.4,30.04,ESE,113,2.0,-999.0,41,0.00,,,0.01,311,Wunderground v.1.15,2013-03-04 23:45:00,
2013-03-04 15:50:00,53.6,30.4,30.04,ESE,113,2.0,-999.0,41,0.00,,,0.01,311,Wunderground v.1.15,2013-03-04 23:50:00,
2013-03-04 15:55:00,54.0,31.4,30.02,ENE,68,2.0,-999.0,42,0.00,,,0.01,211,Wunderground v.1.15,2013-03-04 23:55:00,
2013-03-04 15:56:00,53.9,30.0,30.04,ESE,114,2.0,5.0,41,0.00,,,0.01,171,weatherlink.com 1.10,2013-03-04 23:56:00,
2013-03-04 16:00:00,54.0,31.4,30.02,ENE,68,2.0,-999.0,42,0.00,,,0.01,211,Wunderground v.1.15,2013-03-05 00:00:00,
2013-03-04 16:05:00,54.0,31.4,30.02,ENE,68,2.0,-999.0,42,0.00,,,0.01,211,Wunderground v.1.15,2013-03-05 00:05:00,
2013-03-04 16:10:00,53.7,31.7,30.02,East,90,1.0,-999.0,43,0.00,,,0.01,157,Wunderground v.1.15,2013-03-05 00:10:00,
2013-03-04 16:11:00,53.5,31.0,30.02,East,101,0.0,8.0,42,0.00,,,0.01,188,weatherlink.com 1.10,2013-03-05 00:11:00,
2013-03-04 16:15:00,53.7,31.7,30.02,East,90,1.0,-999.0,43,0.00,,,0.01,157,Wunderground v.1.15,2013-03-05 00:15:00,
2013-03-04 16:20:00,53.7,31.7,30.02,East,90,1.0,-999.0,43,0.00,,,0.01,157,Wunderground v.1.15,2013-03-05 00:20:00,
2013-03-04 16:25:00,53.3,30.2,30.01,East,90,2.0,-999.0,41,0.00,,,0.01,168,Wunderground v.1.15,2013-03-05 00:25:00,
2013-03-04 16:26:00,53.2,30.0,30.02,ESE,115,0.0,8.0,42,0.00,,,0.01,118,weatherlink.com 1.10,2013-03-05 00:26:00,
2013-03-04 16:30:00,53.3,30.2,30.01,East,90,2.0,-999.0,41,0.00,,,0.01,168,Wunderground v.1.15,2013-03-05 00:30:00,
2013-03-04 16:35:00,53.3,30.2,30.01,East,90,2.0,-999.0,41,0.00,,,0.01,168,Wunderground v.1.15,2013-03-05 00:35:00,
2013-03-04 16:40:00,52.8,29.7,30.01,ESE,113,2.0,-999.0,41,0.00,,,0.01,93,Wunderground v.1.15,2013-03-05 00:40:00,
2013-03-04 16:41:00,52.7,29.0,30.02,ESE,115,3.0,5.0,41,0.00,,,0.01,77,weatherlink.com 1.10,2013-03-05 00:41:00,
2013-03-04 16:45:00,52.8,29.7,30.01,ESE,113,2.0,-999.0,41,0.00,,,0.01,93,Wunderground v.1.15,2013-03-05 00:45:00,
2013-03-04 16:50:00,52.8,29.7,30.01,ESE,113,2.0,-999.0,41,0.00,,,0.01,93,Wunderground v.1.15,2013-03-05 00:50:00,
2013-03-04 16:55:00,52.2,29.8,30.01,East,90,2.0,-999.0,42,0.00,,,0.01,68,Wunderground v.1.15,2013-03-05 00:55:00,
2013-03-04 16:56:00,52.1,30.0,30.01,ENE,63,1.0,6.0,43,0.00,,,0.01,65,weatherlink.com 1.10,2013-03-05 00:56:00,
2013-03-04 17:00:00,52.2,29.8,30.01,East,90,2.0,-999.0,42,0.00,,,0.01,68,Wunderground v.1.15,2013-03-05 01:00:00,
2013-03-04 17:05:00,52.2,29.8,30.01,East,90,2.0,-999.0,42,0.00,,,0.01,68,Wunderground v.1.15,2013-03-05 01:05:00,
2013-03-04 17:10:00,51.4,29.6,30.01,East,90,2.0,-999.0,43,0.00,,,0.01,39,Wunderground v.1.15,2013-03-05 01:10:00,
2013-03-04 17:11:00,51.1,29.0,30.01,SE,129,2.0,8.0,43,0.00,,,0.01,37,weatherlink.com 1.10,2013-03-05 01:11:00,
2013-03-04 17:15:00,51.4,29.6,30.01,East,90,2.0,-999.0,43,0.00,,,0.01,39,Wunderground v.1.15,2013-03-05 01:15:00,
2013-03-04 17:20:00,51.4,29.6,30.01,East,90,2.0,-999.0,43,0.00,,,0.01,39,Wunderground v.1.15,2013-03-05 01:20:00,
2013-03-04 17:25:00,50.6,29.5,30.00,ESE,113,2.0,-999.0,44,0.00,,,0.01,30,Wunderground v.1.15,2013-03-05 01:25:00,
2013-03-04 17:26:00,50.4,28.0,30.01,East,83,2.0,6.0,43,0.00,,,0.01,30,weatherlink.com 1.10,2013-03-05 01:26:00,
2013-03-04 17:30:00,50.6,29.5,30.00,ESE,113,2.0,-999.0,44,0.00,,,0.01,30,Wunderground v.1.15,2013-03-05 01:30:00,
2013-03-04 17:35:00,50.6,29.5,30.00,ESE,113,2.0,-999.0,44,0.00,,,0.01,30,Wunderground v.1.15,2013-03-05 01:35:00,
2013-03-04 17:40:00,49.8,29.8,30.00,ESE,113,2.0,-999.0,46,0.00,,,0.01,19,Wunderground v.1.15,2013-03-05 01:40:00,
2013-03-04 17:41:00,49.6,29.0,30.00,East,90,3.0,6.0,46,0.00,,,0.01,14,weatherlink.com 1.10,2013-03-05 01:41:00,
2013-03-04 17:45:00,49.8,29.8,30.00,ESE,113,2.0,-999.0,46,0.00,,,0.01,19,Wunderground v.1.15,2013-03-05 01:45:00,
2013-03-04 17:50:00,49.8,29.8,30.00,ESE,113,2.0,-999.0,46,0.00,,,0.01,19,Wunderground v.1.15,2013-03-05 01:50:00,
2013-03-04 17:55:00,49.0,29.6,30.00,East,90,1.0,-999.0,47,0.00,,,0.01,3,Wunderground v.1.15,2013-03-05 01:55:00,
2013-03-04 17:56:00,48.7,29.0,30.00,East,96,1.0,4.0,47,0.00,,,0.01,0,weatherlink.com 1.10,2013-03-05 01:56:00,
2013-03-04 18:00:00,49.0,29.6,30.00,East,90,1.0,-999.0,47,0.00,,,0.01,3,Wunderground v.1.15,2013-03-05 02:00:00,
2013-03-04 18:05:00,49.0,29.6,30.00,East,90,1.0,-999.0,47,0.00,,,0.01,3,Wunderground v.1.15,2013-03-05 02:05:00,
2013-03-04 18:10:00,47.8,31.5,30.00,East,90,0.0,-999.0,53,0.00,,,0.01,0,Wunderground v.1.15,2013-03-05 02:10:00,
2013-03-04 18:11:00,47.4,30.0,30.00,East,82,0.0,1.0,51,0.00,,,0.01,0,weatherlink.com 1.10,2013-03-05 02:11:00,
2013-03-04 18:15:00,47.8,31.5,30.00,East,90,0.0,-999.0,53,0.00,,,0.01,0,Wunderground v.1.15,2013-03-05 02:15:00,
2013-03-04 18:20:00,47.8,31.5,30.00,East,90,0.0,-999.0,53,0.00,,,0.01,0,Wunderground v.1.15,2013-03-05 02:20:00,
2013-03-04 18:25:00,46.2,31.4,29.99,East,90,0.0,-999.0,56,0.00,,,0.01,0,Wunderground v.1.15,2013-03-05 02:25:00,
2013-03-04 18:26:00,45.8,31.0,30.00,East,82,0.0,1.0,56,0.00,,,0.01,0,weatherlink.com 1.10,2013-03-05 02:26:00,
2013-03-04 18:30:00,46.2,31.4,29.99,East,90,0.0,-999.0,56,0.00,,,0.01,0,Wunderground v.1.15,2013-03-05 02:30:00,
2013-03-04 18:35:00,46.2,31.4,29.99,East,90,0.0,-999.0,56,0.00,,,0.01,0,Wunderground v.1.15,2013-03-05 02:35:00,
2013-03-04 18:40:00,45.1,31.2,29.99,East,90,0.0,-999.0,58,0.00,,,0.01,0,Wunderground v.1.15,2013-03-05 02:40:00,
2013-03-04 18:41:00,44.9,30.0,29.99,East,81,0.0,2.0,57,0.00,,,0.01,0,weatherlink.com 1.10,2013-03-05 02:41:00,
2013-03-04 18:45:00,45.1,31.2,29.99,East,90,0.0,-999.0,58,0.00,,,0.01,0,Wunderground v.1.15,2013-03-05 02:45:00,
2013-03-04 18:50:00,45.1,31.2,29.99,East,90,0.0,-999.0,58,0.00,,,0.01,0,Wunderground v.1.15,2013-03-05 02:50:00,
2013-03-04 18:55:00,44.3,30.9,29.99,ENE,68,0.0,-999.0,59,0.00,,,0.01,0,Wunderground v.1.15,2013-03-05 02:55:00,
2013-03-04 18:56:00,44.1,30.0,29.99,ENE,78,1.0,2.0,59,0.00,,,0.01,0,weatherlink.com 1.10,2013-03-05 02:56:00,
2013-03-04 19:00:00,44.3,30.9,29.99,ENE,68,0.0,-999.0,59,0.00,,,0.01,0,Wunderground v.1.15,2013-03-05 03:00:00,
2013-03-04 19:05:00,44.3,30.9,29.99,ENE,68,0.0,-999.0,59,0.00,,,0.01,0,Wunderground v.1.15,2013-03-05 03:05:00,
2013-03-04 19:10:00,43.6,30.2,29.98,East,90,0.0,-999.0,59,0.00,,,0.01,0,Wunderground v.1.15,2013-03-05 03:10:00,
2013-03-04 19:11:00,43.5,30.0,29.99,East,79,0.0,3.0,59,0.00,,,0.01,0,weatherlink.com 1.10,2013-03-05 03:11:00,
2013-03-04 19:15:00,43.6,30.2,29.98,East,90,0.0,-999.0,59,0.00,,,0.01,0,Wunderground v.1.15,2013-03-05 03:15:00,
2013-03-04 19:20:00,43.6,30.2,29.98,East,90,0.0,-999.0,59,0.00,,,0.01,0,Wunderground v.1.15,2013-03-05 03:20:00,
2013-03-04 19:25:00,43.2,30.2,29.98,East,90,0.0,-999.0,60,0.00,,,0.01,0,Wunderground v.1.15,2013-03-05 03:25:00,
2013-03-04 19:26:00,43.1,30.0,29.98,East,79,0.0,1.0,60,0.00,,,0.01,0,weatherlink.com 1.10,2013-03-05 03:26:00,
2013-03-04 19:30:00,43.2,30.2,29.98,East,90,0.0,-999.0,60,0.00,,,0.01,0,Wunderground v.1.15,2013-03-05 03:30:00,
2013-03-04 19:35:00,43.2,30.2,29.98,East,90,0.0,-999.0,60,0.00,,,0.01,0,Wunderground v.1.15,2013-03-05 03:35:00,
2013-03-04 19:40:00,42.8,29.5,29.98,East,90,0.0,-999.0,59,0.00,,,0.01,0,Wunderground v.1.15,2013-03-05 03:40:00,
2013-03-04 19:41:00,42.9,29.0,29.98,East,82,1.0,3.0,59,0.00,,,0.01,0,weatherlink.com 1.10,2013-03-05 03:41:00,
2013-03-04 19:45:00,42.8,29.5,29.98,East,90,0.0,-999.0,59,0.00,,,0.01,0,Wunderground v.1.15,2013-03-05 03:45:00,
2013-03-04 19:50:00,42.8,29.5,29.98,East,90,0.0,-999.0,59,0.00,,,0.01,0,Wunderground v.1.15,2013-03-05 03:50:00,
2013-03-04 19:55:00,43.0,29.6,29.97,East,90,0.0,-999.0,59,0.00,,,0.01,0,Wunderground v.1.15,2013-03-05 03:55:00,
2013-03-04 19:56:00,42.9,29.0,29.98,East,81,0.0,2.0,59,0.00,,,0.01,0,weatherlink.com 1.10,2013-03-05 03:56:00,
2013-03-04 20:00:00,43.0,29.6,29.97,East,90,0.0,-999.0,59,0.00,,,0.01,0,Wunderground v.1.15,2013-03-05 04:00:00,
2013-03-04 20:05:00,43.0,29.6,29.97,East,90,0.0,-999.0,59,0.00,,,0.01,0,Wunderground v.1.15,2013-03-05 04:05:00,
2013-03-04 20:10:00,42.6,29.3,29.97,East,90,0.0,-999.0,59,0.00,,,0.01,0,Wunderground v.1.15,2013-03-05 04:10:00,
2013-03-04 20:11:00,42.4,29.0,29.97,East,82,0.0,2.0,60,0.00,,,0.01,0,weatherlink.com 1.10,2013-03-05 04:11:00,
2013-03-04 20:15:00,42.6,29.3,29.97,East,90,0.0,-999.0,59,0.00,,,0.01,0,Wunderground v.1.15,2013-03-05 04:15:00,
2013-03-04 20:20:00,42.6,29.3,29.97,East,90,0.0,-999.0,59,0.00,,,0.01,0,Wunderground v.1.15,2013-03-05 04:20:00,
2013-03-04 20:25:00,42.2,28.9,29.96,East,90,0.0,-999.0,59,0.00,,,0.01,0,Wunderground v.1.15,2013-03-05 04:25:00,
2013-03-04 20:26:00,42.1,29.0,29.97,East,81,0.0,3.0,59,0.00,,,0.01,0,weatherlink.com 1.10,2013-03-05 04:26:00,
2013-03-04 20:30:00,42.2,28.9,29.96,East,90,0.0,-999.0,59,0.00,,,0.01,0,Wunderground v.1.15,2013-03-05 04:30:00,
2013-03-04 20:35:00,42.2,28.9,29.96,East,90,0.0,-999.0,59,0.00,,,0.01,0,Wunderground v.1.15,2013-03-05 04:35:00,
2013-03-04 20:40:00,42.2,28.5,29.96,East,90,0.0,-999.0,58,0.00,,,0.01,0,Wunderground v.1.15,2013-03-05 04:40:00,
2013-03-04 20:41:00,42.2,29.0,29.96,East,81,0.0,2.0,59,0.00,,,0.01,0,weatherlink.com 1.10,2013-03-05 04:41:00,
2013-03-04 20:45:00,42.2,28.5,29.96,East,90,0.0,-999.0,58,0.00,,,0.01,0,Wunderground v.1.15,2013-03-05 04:45:00,
2013-03-04 20:50:00,42.2,28.5,29.96,East,90,0.0,-999.0,58,0.00,,,0.01,0,Wunderground v.1.15,2013-03-05 04:50:00,
2013-03-04 20:55:00,42.3,28.6,29.96,East,90,1.0,-999.0,58,0.00,,,0.01,0,Wunderground v.1.15,2013-03-05 04:55:00,
2013-03-04 20:57:00,42.3,28.0,29.96,East,86,0.0,3.0,58,0.00,,,0.01,0,weatherlink.com 1.10,2013-03-05 04:57:00,
2013-03-04 21:00:00,42.3,28.6,29.96,East,90,1.0,-999.0,58,0.00,,,0.01,0,Wunderground v.1.15,2013-03-05 05:00:00,
2013-03-04 21:05:00,42.3,28.6,29.96,East,90,1.0,-999.0,58,0.00,,,0.01,0,Wunderground v.1.15,2013-03-05 05:05:00,
2013-03-04 21:10:00,42.3,28.1,29.96,ENE,68,0.0,-999.0,57,0.00,,,0.01,0,Wunderground v.1.15,2013-03-05 05:10:00,
2013-03-04 21:12:00,42.4,28.0,29.96,ENE,76,0.0,2.0,57,0.00,,,0.01,0,weatherlink.com 1.10,2013-03-05 05:12:00,
2013-03-04 21:15:00,42.3,28.1,29.96,ENE,68,0.0,-999.0,57,0.00,,,0.01,0,Wunderground v.1.15,2013-03-05 05:15:00,
2013-03-04 21:20:00,42.3,28.1,29.96,ENE,68,0.0,-999.0,57,0.00,,,0.01,0,Wunderground v.1.15,2013-03-05 05:20:00,
2013-03-04 21:25:00,42.5,28.3,29.96,NE,45,0.0,-999.0,57,0.00,,,0.01,0,Wunderground v.1.15,2013-03-05 05:25:00,
2013-03-04 21:27:00,42.6,28.0,29.96,NE,44,0.0,2.0,56,0.00,,,0.01,0,weatherlink.com 1.10,2013-03-05 05:27:00,
2013-03-04 21:30:00,42.5,28.3,29.96,NE,45,0.0,-999.0,57,0.00,,,0.01,0,Wunderground v.1.15,2013-03-05 05:30:00,
2013-03-04 21:35:00,42.5,28.3,29.96,NE,45,0.0,-999.0,57,0.00,,,0.01,0,Wunderground v.1.15,2013-03-05 05:35:00,
2013-03-04 21:40:00,42.4,27.8,29.96,ENE,68,1.0,-999.0,56,0.00,,,0.01,0,Wunderground v.1.15,2013-03-05 05:40:00,
2013-03-04 21:42:00,42.3,28.0,29.96,NNE,32,1.0,4.0,58,0.00,,,0.01,0,weatherlink.com 1.10,2013-03-05 05:42:00,
2013-03-04 21:45:00,42.4,27.8,29.96,ENE,68,1.0,-999.0,56,0.00,,,0.01,0,Wunderground v.1.15,2013-03-05 05:45:00,
2013-03-04 21:50:00,42.4,27.8,29.96,ENE,68,1.0,-999.0,56,0.00,,,0.01,0,Wunderground v.1.15,2013-03-05 05:50:00,
2013-03-04 21:55:00,42.9,27.8,29.96,East,90,2.0,-999.0,55,0.00,,,0.01,0,Wunderground v.1.15,2013-03-05 05:55:00,
2013-03-04 21:57:00,42.9,28.0,29.96,East,82,3.0,8.0,55,0.00,,,0.01,0,weatherlink.com 1.10,2013-03-05 05:57:00,
2013-03-04 22:00:00,42.9,27.8,29.96,East,90,2.0,-999.0,55,0.00,,,0.01,0,Wunderground v.1.15,2013-03-05 06:00:00,
2013-03-04 22:05:00,42.9,27.8,29.96,East,90,2.0,-999.0,55,0.00,,,0.01,0,Wunderground v.1.15,2013-03-05 06:05:00,
2013-03-04 22:10:00,43.1,27.6,29.95,East,90,2.0,-999.0,54,0.00,,,0.01,0,Wunderground v.1.15,2013-03-05 06:10:00,
2013-03-04 22:12:00,43.0,28.0,29.96,East,97,1.0,5.0,55,0.00,,,0.01,0,weatherlink.com 1.10,2013-03-05 06:12:00,
2013-03-04 22:15:00,43.1,27.6,29.95,East,90,2.0,-999.0,54,0.00,,,0.01,0,Wunderground v.1.15,2013-03-05 06:15:00,
2013-03-04 22:20:00,43.1,27.6,29.95,East,90,2.0,-999.0,54,0.00,,,0.01,0,Wunderground v.1.15,2013-03-05 06:20:00,
2013-03-04 22:25:00,43.4,27.8,29.95,East,90,2.0,-999.0,54,0.00,,,0.01,0,Wunderground v.1.15,2013-03-05 06:25:00,
2013-03-04 22:27:00,43.4,27.0,29.95,East,96,0.0,6.0,53,0.00,,,0.01,0,weatherlink.com 1.10,2013-03-05 06:27:00,
2013-03-04 22:30:00,43.4,27.8,29.95,East,90,2.0,-999.0,54,0.00,,,0.01,0,Wunderground v.1.15,2013-03-05 06:30:00,
2013-03-04 22:35:00,43.4,27.8,29.95,East,90,2.0,-999.0,54,0.00,,,0.01,0,Wunderground v.1.15,2013-03-05 06:35:00,
2013-03-04 22:40:00,43.5,27.5,29.94,East,90,2.0,-999.0,53,0.00,,,0.01,0,Wunderground v.1.15,2013-03-05 06:40:00,
2013-03-04 22:42:00,43.7,27.0,29.95,ENE,78,1.0,9.0,53,0.00,,,0.01,0,weatherlink.com 1.10,2013-03-05 06:42:00,
2013-03-04 22:45:00,43.5,27.5,29.94,East,90,2.0,-999.0,53,0.00,,,0.01,0,Wunderground v.1.15,2013-03-05 06:45:00,
2013-03-04 22:50:00,43.5,27.5,29.94,East,90,2.0,-999.0,53,0.00,,,0.01,0,Wunderground v.1.15,2013-03-05 06:50:00,
2013-03-04 22:55:00,43.7,27.7,29.93,East,90,2.0,-999.0,53,0.00,,,0.01,0,Wunderground v.1.15,2013-03-05 06:55:00,
2013-03-04 22:57:00,43.7,27.0,29.94,ENE,77,1.0,6.0,52,0.00,,,0.01,0,weatherlink.com 1.10,2013-03-05 06:57:00,
2013-03-04 23:00:00,43.7,27.7,29.93,East,90,2.0,-999.0,53,0.00,,,0.01,0,Wunderground v.1.15,2013-03-05 07:00:00,
2013-03-04 23:05:00,43.7,27.7,29.93,East,90,2.0,-999.0,53,0.00,,,0.01,0,Wunderground v.1.15,2013-03-05 07:05:00,
2013-03-04 23:10:00,44.1,26.6,29.93,East,90,3.0,-999.0,50,0.00,,,0.01,0,Wunderground v.1.15,2013-03-05 07:10:00,
2013-03-04 23:12:00,44.3,27.0,29.93,ENE,65,2.0,9.0,51,0.00,,,0.01,0,weatherlink.com 1.10,2013-03-05 07:12:00,
2013-03-04 23:15:00,44.1,26.6,29.93,East,90,3.0,-999.0,50,0.00,,,0.01,0,Wunderground v.1.15,2013-03-05 07:15:00,
2013-03-04 23:20:00,44.1,26.6,29.93,East,90,3.0,-999.0,50,0.00,,,0.01,0,Wunderground v.1.15,2013-03-05 07:20:00,
2013-03-04 23:25:00,44.6,26.1,29.93,East,90,4.0,-999.0,48,0.00,,,0.01,0,Wunderground v.1.15,2013-03-05 07:25:00,
2013-03-04 23:27:00,44.7,26.0,29.93,East,84,8.0,16.0,49,0.00,,,0.01,0,weatherlink.com 1.10,2013-03-05 07:27:00,
2013-03-04 23:30:00,44.6,26.1,29.93,East,90,4.0,-999.0,48,0.00,,,0.01,0,Wunderground v.1.15,2013-03-05 07:30:00,
2013-03-04 23:35:00,44.6,26.1,29.93,East,90,4.0,-999.0,48,0.00,,,0.01,0,Wunderground v.1.15,2013-03-05 07:35:00,
2013-03-04 23:40:00,45.1,26.6,29.93,East,90,3.0,-999.0,48,0.00,,,0.01,0,Wunderground v.1.15,2013-03-05 07:40:00,
2013-03-04 23:42:00,45.0,27.0,29.93,ENE,71,3.0,7.0,49,0.00,,,0.01,0,weatherlink.com 1.10,2013-03-05 07:42:00,
2013-03-04 23:45:00,45.1,26.6,29.93,East,90,3.0,-999.0,48,0.00,,,0.01,0,Wunderground v.1.15,2013-03-05 07:45:00,
2013-03-04 23:50:00,45.1,26.6,29.93,East,90,3.0,-999.0,48,0.00,,,0.01,0,Wunderground v.1.15,2013-03-05 07:50:00,
2013-03-04 23:55:00,44.8,26.8,29.92,East,90,3.0,-999.0,49,0.00,,,0.01,0,Wunderground v.1.15,2013-03-05 07:55:00,
2013-03-04 23:57:00,44.7,26.0,29.93,ESE,105,2.0,7.0,49,0.00,,,0.01,0,weatherlink.com 1.10,2013-03-05 07:57:00,